METEOR 2-7 DEB, 45515

Orbit data source: Space-Track

METEOR 2-7 DEB, 45515 is space debris in LEO originally from a launch on Thu, 12 Feb 1981 UTC launched from the Plesetsk Missile And Space Complex (PKMTR). Debris objects in space refer to the collection of defunct objects orbiting the Earth. Examples of debris include non-operational satellites, rocket bodies, and fragments generated from explosions, collisions, or faulty payload assembly.

Loading next visibility...
Identifier
45515, 1981-043AA
Orbit
LEO
Country
Flag of CISCIS
Related business
Manufacturer
Unknown
Mission
Spacecraft
Bus & Motor
Unknown
Mass
Unknown
Launch date (UTC)
1981-02-12 (45 years ago)
Launch vehicle
Unknown
Launch site
Plesetsk Missile And Space Complex (PKMTR)
Object type
Payload
Rocket body
Debris
Shape & HBR
Unknown shape, 0.1 m
Radar Cross Section
Small (<0.1 m²)

Expand to show TLE details & history
Last TLE update: 3 days ago

TLE from 3 days ago
0 METEOR 2-7 DEB
1 45515U 81043AA  25308.09679381  .00010939  00000-0  33278-2 0  9994
2 45515  81.2501 239.9872 0002570 301.1465  75.4287 14.42007036619920
Epoch: 2025-11-04T02:19Z
TLE epoch observation values (Epoch: 2025-11-04T02:19:22.985Z)
Latitude
16.38838°
Longitude
164.13323°
Altitude
753.706 km
Speed
7.479 km/s
True Right ascension
16h 10m 16s
True Declination
16° 17' 44"
Sunlit
Object was in daylight at epoch
Visualization orbit readout
Latitude
Unknown
Longitude
Unknown
Altitude
Unknown
Speed
Unknown
Apparent Right ascension
Unknown
Apparent Declination
Unknown
Sunlit
N/A
Visualization observer readout
Local Sidereal Time
08:09:38
Azimuth
Unknown
Elevation
Unknown
Doppler factor
Unknown
Orbital elements
Apogee altitude
750.838 km
Perigee altitude
747.174 km
Semi-major axis
7,127.143 km
Eccentricity
0.00026
Inclination
81.2501°
RAAN
239.9872°
Arg. of periapsis
301.1465°
True anomaly
75.45721°
Mean anomaly
75.4287°
Eccentric anomaly
75.44295°
Mean motion
3.6072 °/min
Orbital period
99.8 mins
BSTAR
0.0033278
Loading maneuver chart data...
Computing Atmospheric mass density...
Loading historical data...
Loading historical data...
Loading historical data...
Loading historical data...
Loading historical data...
Loading historical data...
Loading historical data...

Documentation

Showing up to 5 results
|